Date,TemperatureHighF,TemperatureAvgF,TemperatureLowF,DewpointHighF,DewpointAvgF,DewpointLowF,HumidityHigh,HumidityAvg,HumidityLow,PressureMaxIn,PressureMinIn,WindSpeedMaxMPH,WindSpeedAvgMPH,GustSpeedMaxMPH,PrecipitationSumIn
2013-1-1,46.0,43.1,41.0,39.0,33.4,25.0,83,69,45,29.93,29.80,3,0,0,0.00
2013-1-2,41.0,37.7,33.0,37.0,27.2,16.0,84,66,47,30.13,29.89,7,1,0,0.00
2013-1-3,34.0,12.3,32.0,21.0,-55.5,-99.9,61,21,44,30.16,30.07,1,0,0,0.00
2013-1-4,-200.0,0.0,200.0,-99.9,-99.9,-99.9,0,0,100,30.14,30.02,6,1,0,0.00
2013-1-5,-200.0,0.0,200.0,-99.9,-99.9,-99.9,0,0,100,30.29,30.09,5,1,0,0.00
2013-1-6,-200.0,0.0,200.0,-99.9,-99.9,-99.9,0,0,100,30.15,29.95,5,1,0,0.00
2013-1-7,-200.0,0.0,200.0,-99.9,-99.9,-99.9,0,0,100,30.36,30.04,9,3,0,0.00
2013-1-8,-200.0,0.0,200.0,-99.9,-99.9,-99.9,0,0,100,30.37,30.29,7,1,0,0.00
2013-1-9,-200.0,0.0,200.0,-99.9,-99.9,-99.9,0,0,100,30.31,30.15,8,1,0,0.00
2013-1-10,-200.0,0.0,200.0,-99.9,-99.9,-99.9,0,0,100,30.49,30.27,6,1,0,0.00
2013-1-11,-200.0,0.0,200.0,-99.9,-99.9,-99.9,0,0,100,30.41,30.00,4,0,0,0.00
2013-1-12,-200.0,0.0,200.0,-99.9,-99.9,-99.9,0,0,100,30.09,30.00,6,0,0,0.00
2013-1-13,-200.0,0.0,200.0,-99.9,-99.9,-99.9,0,0,100,30.06,29.91,3,0,0,0.00
2013-1-14,-200.0,0.0,200.0,-99.9,-99.9,-99.9,0,0,100,30.14,29.89,9,2,0,0.00
2013-1-15,-200.0,0.0,200.0,-99.9,-99.9,-99.9,0,0,100,30.21,30.03,6,2,0,0.00
2013-1-16,-200.0,0.0,200.0,-99.9,-99.9,-99.9,0,0,100,30.03,29.78,7,2,0,0.00
2013-1-17,-200.0,0.0,200.0,-99.9,-99.9,-99.9,0,0,100,30.04,29.86,5,0,0,0.00
2013-1-18,-200.0,0.0,200.0,-99.9,-99.9,-99.9,0,0,100,30.43,29.94,9,3,0,0.00
2013-1-19,-200.0,0.0,200.0,-99.9,-99.9,-99.9,0,0,100,30.38,29.98,8,2,0,0.00
2013-1-20,-200.0,0.0,200.0,-99.9,-99.9,-99.9,0,0,100,29.98,29.75,14,6,0,0.00
2013-1-21,-200.0,0.0,200.0,-99.9,-99.9,-99.9,0,0,100,30.01,29.69,12,3,0,0.00
2013-1-22,-200.0,0.0,200.0,-99.9,-99.9,-99.9,0,0,100,30.21,29.83,15,7,0,0.00
2013-1-23,-200.0,0.0,200.0,-99.9,-99.9,-99.9,0,0,100,30.27,30.06,11,3,0,0.00
2013-1-24,-200.0,0.0,200.0,-99.9,-99.9,-99.9,0,0,100,30.43,29.95,15,6,0,0.00
2013-1-25,-200.0,0.0,200.0,-99.9,-99.9,-99.9,0,0,100,30.43,29.99,4,0,0,0.00
2013-1-26,-200.0,0.0,200.0,-99.9,-99.9,-99.9,0,0,100,30.33,29.99,11,2,0,0.00
2013-1-27,-200.0,0.0,200.0,-99.9,-99.9,-99.9,0,0,100,30.52,30.33,2,0,0,0.00
2013-1-28,-200.0,0.0,200.0,-99.9,-99.9,-99.9,0,0,100,30.43,30.00,10,3,0,0.00
2013-1-29,-200.0,0.0,200.0,-99.9,-99.9,-99.9,0,0,100,30.06,29.94,8,2,0,0.00
2013-1-30,-200.0,0.0,200.0,-99.9,-99.9,-99.9,0,0,100,29.93,29.26,10,4,0,0.00
2013-1-31,-200.0,0.0,200.0,-99.9,-99.9,-99.9,0,0,100,29.86,29.22,21,12,0,0.00
2013-2-1,-200.0,0.0,200.0,-99.9,-99.9,-99.9,0,0,100,30.29,29.70,22,8,0,0.00
2013-2-2,-200.0,0.0,200.0,-99.9,-99.9,-99.9,0,0,100,30.30,29.90,8,1,0,0.00
2013-2-3,-200.0,0.0,200.0,-99.9,-99.9,-99.9,0,0,100,29.91,29.75,7,0,0,0.00
2013-2-4,-200.0,0.0,200.0,-99.9,-99.9,-99.9,0,0,100,30.04,29.83,12,3,0,0.00
2013-2-5,-200.0,0.0,200.0,-99.9,-99.9,-99.9,0,0,100,29.84,29.83,3,3,0,0.00
2013-2-8,-200.0,0.0,200.0,-99.9,-99.9,-99.9,0,0,100,29.80,29.60,19,11,0,0.00
2013-2-9,-200.0,0.0,200.0,-99.9,-99.9,-99.9,0,0,100,30.28,29.79,22,12,0,0.00
2013-2-10,-200.0,0.0,200.0,-99.9,-99.9,-99.9,0,0,100,30.41,30.21,5,1,0,0.00
2013-2-11,-200.0,0.0,200.0,-99.9,-99.9,-99.9,0,0,100,30.21,29.67,9,4,0,0.00
2013-2-12,-200.0,0.0,200.0,-99.9,-99.9,-99.9,0,0,100,29.91,29.69,8,2,0,0.00
2013-2-13,-200.0,0.0,200.0,-99.9,-99.9,-99.9,0,0,100,29.84,29.54,9,2,0,0.00
2013-2-14,-200.0,0.0,200.0,-99.9,-99.9,-99.9,0,0,100,29.96,29.65,8,2,0,0.00
2013-2-15,-200.0,0.0,200.0,-99.9,-99.9,-99.9,0,0,100,29.97,29.81,9,1,0,0.00
2013-2-16,-200.0,0.0,200.0,-99.9,-99.9,-99.9,0,0,100,29.91,29.71,8,3,0,0.00
2013-2-17,-200.0,0.0,200.0,-99.9,-99.9,-99.9,0,0,100,30.12,29.71,20,13,0,0.00
2013-2-18,-200.0,0.0,200.0,-99.9,-99.9,-99.9,0,0,100,30.31,30.12,12,2,0,0.00
2013-2-19,-200.0,0.0,200.0,-99.9,-99.9,-99.9,0,0,100,30.14,29.67,11,2,0,0.00
2013-2-20,-200.0,0.0,200.0,-99.9,-99.9,-99.9,0,0,100,30.06,29.75,11,3,0,0.00
2013-2-21,-200.0,0.0,200.0,-99.9,-99.9,-99.9,0,0,100,30.21,30.04,15,8,0,0.00
2013-2-22,-200.0,0.0,200.0,-99.9,-99.9,-99.9,0,0,100,30.29,30.11,10,1,0,0.00
2013-2-23,-200.0,0.0,200.0,-99.9,-99.9,-99.9,0,0,100,30.12,29.71,8,2,0,0.00
2013-2-24,-200.0,0.0,200.0,-99.9,-99.9,-99.9,0,0,100,30.01,29.69,12,4,0,0.00
2013-2-25,-200.0,0.0,200.0,-99.9,-99.9,-99.9,0,0,100,30.14,30.01,7,2,0,0.00
2013-2-26,-200.0,0.0,200.0,-99.9,-99.9,-99.9,0,0,100,30.13,29.47,25,6,0,0.00
2013-2-27,-200.0,0.0,200.0,-99.9,-99.9,-99.9,0,0,100,29.61,29.41,12,2,0,0.00
2013-2-28,-200.0,0.0,200.0,-99.9,-99.9,-99.9,0,0,100,29.65,29.54,12,1,0,0.00
2013-3-1,-200.0,0.0,200.0,-99.9,-99.9,-99.9,0,0,100,29.78,29.64,11,5,0,0.00
2013-3-2,-200.0,0.0,200.0,-99.9,-99.9,-99.9,0,0,100,29.80,29.72,13,7,0,0.00
2013-3-3,-200.0,0.0,200.0,-99.9,-99.9,-99.9,0,0,100,29.82,29.70,16,8,0,0.00
2013-3-4,-200.0,0.0,200.0,-99.9,-99.9,-99.9,0,0,100,29.95,29.82,15,8,0,0.00
2013-3-5,-200.0,0.0,200.0,-99.9,-99.9,-99.9,0,0,100,30.00,29.70,15,3,0,0.00
2013-3-6,-200.0,0.0,200.0,-99.9,-99.9,-99.9,0,0,100,29.81,29.27,18,12,0,0.00
2013-3-7,-200.0,0.0,200.0,-99.9,-99.9,-99.9,0,0,100,30.03,29.81,16,9,0,0.00
2013-3-8,-200.0,0.0,200.0,-99.9,-99.9,-99.9,0,0,100,30.12,29.99,18,9,0,0.00
2013-3-9,-200.0,0.0,200.0,-99.9,-99.9,-99.9,0,0,100,30.22,30.11,8,3,0,0.00
2013-3-10,-200.0,0.0,200.0,-99.9,-99.9,-99.9,0,0,100,30.24,30.16,11,2,0,0.00
2013-3-11,-200.0,0.0,200.0,-99.9,-99.9,-99.9,0,0,100,30.19,29.90,8,2,0,0.00
2013-3-12,-200.0,0.0,200.0,-99.9,-99.9,-99.9,0,0,100,29.92,29.64,7,2,0,0.00
2013-3-13,-200.0,0.0,200.0,-99.9,-99.9,-99.9,0,0,100,29.96,29.81,13,4,0,0.00
2013-3-14,-200.0,0.0,200.0,-99.9,-99.9,-99.9,0,0,100,30.06,29.93,16,10,0,0.00
2013-3-15,-200.0,0.0,200.0,-99.9,-99.9,-99.9,0,0,100,30.01,29.71,13,2,0,0.00
2013-3-16,-200.0,0.0,200.0,-99.9,-99.9,-99.9,0,0,100,29.71,29.69,4,1,0,0.00
2013-5-3,59.0,55.4,52.0,48.0,46.4,45.0,82,72,62,30.19,30.17,9,4,0,0.00
2013-5-4,63.0,55.9,51.0,52.0,47.6,40.0,91,75,54,30.18,30.04,11,4,0,0.00
2013-5-5,53.0,51.6,51.0,49.0,47.3,45.0,91,85,76,30.07,30.02,7,4,0,0.00
2013-5-10,87.0,78.0,73.0,68.0,51.3,-99.9,70,56,42,29.85,29.74,8,2,0,0.00
2013-5-11,82.0,74.7,69.0,69.0,65.4,62.0,95,74,54,29.77,29.58,12,3,0,0.00
2013-5-12,71.0,64.3,59.0,67.0,52.3,-99.9,100,70,38,29.83,29.59,12,4,0,0.00
2013-5-19,75.0,72.9,71.0,71.0,61.0,-99.9,94,85,85,29.99,29.94,8,2,0,0.00
2013-5-20,83.0,74.9,68.0,73.0,70.0,68.0,100,86,62,29.98,29.84,7,1,0,0.00